sat.trackr.live / text

‹ back to catalog

UVSQ-SAT NG

NORAD 63251 · 2025-052AT

PAYLOAD ACTIVE UNKNOWN

§ Identity

Operator
Country
FR
Launch date
2025-03-15
Launch site
AFWTR
Launch vehicle
Mass (kg)
RCS (m²)

External: N2YO · Heavens-Above · Gunter

§ Orbital elements

Epoch: 2026-05-24T16:56:25.444320Z

Period
96.30 min
Inclination
97.6880°
Eccentricity
0.0001894
Mean motion
14.95258303 rev/d
Perigee alt
580.3 km
Apogee alt
582.9 km
Semi-major
6,959.7 km
B*
1.9552e-4
RAAN
36.6213°
Arg perigee
337.6025°
Mean anomaly
22.5113°
Rev number
6,512

§ Raw data

UVSQ-SAT NG1 63251U 25052AT  26144.70585005  .00002095  00000+0  19552-3 0  99982 63251  97.6880  36.6213 0001894 337.6025  22.5113 14.95258303 65124

JSON: /api/v1/satellites/63251 · /tle

For live sub-satellite position, see the globe view (requires WebGL).

§ Visibility from observer

Set your observer location to see the next 7 days of passes ≥ 10°. The values pass through the URL so the page stays shareable.

No JS? Fill the form by hand. The geolocation button needs JavaScript.

§ Radio — SatNOGS DB

ModeDescriptionDownlinkUplink
FM Mode S - Transmitter 2.208 GHz
BPSK Mode U - BPSK9k6 401.850 MHz

2 transmitters · refreshed weekly from db.satnogs.org